Other Public Products
Issued by NWS Grand Forks, ND

Home | Current Version | Previous Version | Graphics & Text | Print | Product List | Glossary On
Versions: 1 2 3 4 5 6 7 8 9 10 11 12 13 14 15 16 17 18 19 20 21 22 23 24 25 26 27 28 29 30 31 32 33 34 35 36 37 38 39 40 41 42 43 44 45 46 47 48 49 50
000
FPUS83 KFGF 021031
OPUFGF
PRAIRIE TO PINES WEATHER ROUNDUP
NATIONAL WEATHER SERVICE EASTERN NORTH DAKOTA/GRAND FORKS ND
500 AM CDT THU JUL 02 2015

 **SATELLITE DATA USED TO AUGMENT SKY COVER AT AUTOMATED STATIONS**
 *****  WEATHER ACROSS EASTERN NORTH DAKOTA  *****

CITY           SKY/WX    TMP DP  RH WIND       PRES   REMARKS
GRAND FORKS    CLEAR     59  56  89 S5        29.95R
GRAND FORKS AF CLEAR     59  56  90 S7        29.95R
GRAND CITY NWS   N/A     57 N/A N/A SE5         N/A
BUXTON         NOT AVBL
DEVILS LAKE    MOCLDY    64  59  82 S6        29.92S
FARGO          CLEAR     59  55  87 SE7       29.98R
WAHPETON ARPT  NOT AVBL
$$

 *****  WEATHER ACROSS CENTRAL AND WESTERN NORTH DAKOTA  *****

CITY           SKY/WX    TMP DP  RH WIND       PRES   REMARKS
JAMESTOWN      PTCLDY    62  60  93 S6        29.94F
BISMARCK       LGT RAIN  62  61  96 SE5       29.96F
MINOT          MOCLDY    62  59  90 SW3       29.94R FOG
MINOT AFB      CLEAR     58  58 100 W1        29.92F FOG
GARRISON         N/A     60  59  96 CALM      29.95S
WILLISTON      CLEAR     58  54  86 W9        29.99S
DICKINSON      PTCLDY    59  57  93 NW8       30.00S FOG
HETTINGER      CLEAR     57  55  93 CALM      30.03R FOG
$$

 *****  OTHER OBSERVATIONS NORTHEAST NORTH DAKOTA  *****

CITY           SKY/WX    TMP DP  RH WIND       PRES   REMARKS
WALHALLA       FAIR      63  63 100 MISG      29.92S
LANGDON        FAIR      61  61 100 S7        29.94F FOG
CAVALIER       FAIR      59  59 100 S7        29.92F FOG
GRAFTON        FAIR      57  57 100 S6        29.95S
CANDO          FAIR      59  59 100 CALM      29.94R FOG
FORT TOTTEN      N/A     63  61  94 SE5       29.95
ROLLA          PTSUNNY   57  57 100 NW5       29.95S FOG
RUGBY          NOT AVBL
 ***** THE ABOVE OBSERVATIONS ARE NON NWS ARE NOT QUALITY
        CONTROLLED AND MAY MIS-REPORT RAIN FOR SNOW...
$$

 *****  OTHER OBSERVATIONS SOUTHEAST NORTH DAKOTA *****

CITY           SKY/WX    TMP DP  RH WIND       PRES   REMARKS
COOPERSTOWN    NOT AVBL
VALLEY CITY    CLOUDY    59  59 100 S3        29.96F
OAKES            N/A     59  59 100 E3        29.97R
GWINNER          N/A     61  61 100 SE7       29.97F
BUFFALO        NOT AVBL
WYNDMERE       NOT AVBL
 ***** THE ABOVE OBSERVATIONS ARE NON NWS ARE NOT QUALITY
       CONTROLLED AND MAY MIS-REPORT RAIN FOR SNOW...
$$

  *****  WEATHER ACROSS NORTHERN MINNESOTA  *****

CITY           SKY/WX    TMP DP  RH WIND       PRES   REMARKS
FLAG ISLAND    CLEAR     66  59  77 W13       29.94S
WARROAD        CLEAR     59  55  88 SW6       29.97R
ROSEAU         CLEAR     57  54  88 CALM      29.96S
HALLOCK        CLEAR     57  55  94 S6        29.94S
THF RVR FALLS  CLEAR     57  54  88 S5        29.99R
HALSTAD        NOT AVBL
FOSSTON        CLEAR     54  52  94 S5        30.01R
BAUDETTE       CLEAR     59  56  89 W3        29.96R
WASKISH        CLEAR     66  59  77 W10       29.98S
CROOKSTON      CLEAR     59  55  88 S6        29.98S
$$
  *****  WEATHER ACROSS CENTRAL AND WEST MINNESOTA  *****

CITY           SKY/WX    TMP DP  RH WIND       PRES   REMARKS
BEMIDJI        CLEAR     58  56  94 SW3       30.01R
PARK RAPIDS    CLOUDY    59  56  89 SW6       30.02R
WADENA           N/A     57  55  94 CALM      30.02S
DETROIT LAKES  CLEAR     59  54  82 S3        30.02S
MOORHEAD       CLEAR     57  55  94 SE6       29.99F
FERGUS FALLS   PTCLDY    57  54  88 S6        30.01S
ELBOW LAKE     FAIR      56  54  90 SE6       30.01S
MORRIS MN      MOCLDY    55  54  94 SE6       30.01S
STAPLES        CLOUDY    59  54  82 CALM      30.03R
WHEATON        MOCLDY    52  52 100 SE6       30.02S
$$
  *****  WEATHER ELSEWHERE ACROSS MINNESOTA  *****

CITY           SKY/WX    TMP DP  RH WIND       PRES   REMARKS
DULUTH         MOCLDY    58  52  80 SW5       30.01S
INTRNTL FALLS  CLEAR     54  53  97 CALM      29.96R FOG
ELY            CLEAR     48  46  93 CALM      30.00S
CLOQUET        CLOUDY    54  52  94 CALM      30.02R
BRAINERD       CLOUDY    58  55  90 SE3       30.02R
HIBBING        PTCLDY    48  47  96 CALM      30.01R FOG
ALEXANDRIA     PTCLDY    56  52  86 S5        30.04R
SAINT CLOUD    CLEAR     51  50  96 CALM      30.03R
MINNEAPOLIS    PTCLDY    57  53  86 CALM      30.03R
$$

  *****  WEATHER ACROSS SOUTH DAKOTA  *****

CITY           SKY/WX    TMP DP  RH WIND       PRES   REMARKS
SIOUX FALLS    CLOUDY    59  54  83 SE5       30.00S
BROOKINGS      CLOUDY    57  54  88 SE9       30.02S
WATERTOWN      MOCLDY    58  54  86 S7        29.99S
HURON          CLOUDY    61  57  87 SE10      29.95F
SISSETON         N/A     55  53  93 S6        29.98F
ABERDEEN       CLOUDY    63  58  83 S6        29.96S
MITCHELL       CLOUDY    61  58  90 SE7       29.97S
PIERRE         MOCLDY    67  66  97 E3        29.91S FOG
MOBRIDGE       RAIN      65  62  90 SE10      29.91F FOG
RAPID CITY     MOCLDY    61  59  93 NW9       30.02S
$$

  *****  SOME WEATHER IN NEARBY STATES *****

CITY           SKY/WX    TMP DP  RH WIND       PRES   REMARKS
GLASGOW MT     CLEAR     57  52  83 NW8       30.05S
GREAT FALLS MT CLEAR     56  50  80 SW6       30.19R
CHEYENNE WY    LGT RAIN  58  56  93 E28G41    30.22F
SCOTTSBLUFF NE LGT RAIN  60  32  34 S9        30.14F
OMAHA NE       CLOUDY    65  59  81 VRB3      29.94S
DES MOINES IA  PTCLDY    60  54  80 NE9       29.96R
DAVENPORT IA   PTCLDY    55  52  89 E8        29.97F
CHICAGO IL     CLOUDY    55  52  89 NE10      29.97F
EAU CLAIRE WI  CLEAR     50  49  96 CALM      30.02R
LA CROSSE WI   CLEAR     52  51  97 SE3       30.02R
$$

  *****  SOME NATIONAL WEATHER *****

CITY           SKY/WX    TMP DP  RH WIND       PRES   REMARKS
LA GUARDIA NY  PTCLDY    71  57  61 NW5       29.87R
RALEIGH NC     CLOUDY    74  70  87 SW7       29.92R
ATLANTA GA     MOCLDY    69  63  81 SW6       30.01R
NEW ORLEANS LA CLOUDY    75  69  81 S7        30.05S
OKLAHOMA CITY  PTCLDY    77  68  73 SW10      29.88S
ALBUQUERQUE NM CLOUDY    76  52  43 N9        30.13R
SALT LAKE CITY CLOUDY    77  51  40 SE8       30.01F
LOS ANGELES CA LGT RAIN  65  61  87 W7        29.95F
BOISE ID       MOCLDY    74  49  41 SW3       29.96R
SEATTLE WA     CLEAR     69  53  56 N5        29.99R
$$

*** WEATHER ACROSS MANITOBA...SASKATCHEWAN AND ONTARIO ***
                ***ONTARIO***

CITY           SKY/WX    TMP DP  RH WIND       PRES   REMARKS
GERALDTON      PTCLDY    46  45  93 W2        29.98S
THUNDER BAY    PTCLDY    46  46 100 SW2       29.98S
SIOUX LOOKOUT  CLOUDY    59  59 100 S2        29.95S
TORONTO        PTCLDY    55  52  88 N8        29.95R
BIG TROUT LK   CLOUDY    54  50  87 SE5       29.89F
PICKLE LAKE    NOT AVBL
DRYDEN         PTCLDY    61  55  82 SW7       29.94F
KENORA         PTCLDY    63  59  88 S3        29.95
$$
                *** MANITOBA***

CITY           SKY/WX    TMP DP  RH WIND       PRES   REMARKS
BRANDON        FOG       55  55 100 SW2       29.92S VSB 1/8
DAUPHIN        PTCLDY    63  59  88 SW7       29.88F FOG
ISLAND LAKE    PTCLDY    61  55  82 S5        29.85S
PILOT MOUND      N/A     59  57  94 S3          N/A
THE PAS        CLOUDY    63  61  94 CALM      29.89F SMOKE
THOMPSON       MOCLDY    52  48  87 CALM      29.81F
WINNIPEG       CLEAR     59  59 100 S8        29.91S
LYNN LAKE      CLOUDY    57  52  82 W7        29.79F
CHURCHILL      CLOUDY    59  57  94 W8        29.69F
GILLAM         MOCLDY    63  46  55 S8        29.79F
$$
                ***SASKATCHEWAN***

CITY           SKY/WX    TMP DP  RH WIND       PRES   REMARKS
ESTEVAN        FOG       55  55 100 NW6       29.97S VSB 1/2
KINDERSLEY     PTCLDY    57  57 100 W5        30.08
LLOYDMINSTER   CLEAR     57  55  94 W6        30.06S FOG
PRINCE ALBERT    N/A     59  59 100 W5        29.97R FOG
REGINA         PTCLDY    55  55 100 NW3       30.00S FOG
YORKTON        PTCLDY    61  59  94 W7        29.94  FOG



USA.gov is the U.S. government's official web portal to all federal, state and local government web resources and services.